| time (UTC) | temp F | wind direction | speed MPH | gust MPH | rain 1hr in | rain 24hr in | rain mn in | humidity % | barometer mb |
| 20260902041557 | 48 | 69 | 0.0 | 0.0 | 0.00 | 0.09 | 0.01 | 93 | 1006.4 |
| 20260902040044 | 48 | 69 | 0.0 | 0.0 | 0.00 | 0.09 | 0.01 | 93 | 1006.4 |
| 20260902034536 | 48 | 69 | 0.0 | 0.0 | 0.00 | 0.09 | 0.01 | 93 | 1006.5 |
| 20260902033040 | 48 | 69 | 0.0 | 0.0 | 0.00 | 0.09 | 0.01 | 93 | 1006.5 |
| 20260902031533 | 49 | 69 | 0.0 | 0.0 | 0.00 | 0.09 | 0.01 | 93 | 1006.6 |
| 20260902030033 | 49 | 69 | 0.0 | 0.0 | 0.00 | 0.09 | 0.01 | 93 | 1006.6 |
| 20260902024538 | 49 | 69 | 0.0 | 0.0 | 0.00 | 0.09 | 0.01 | 93 | 1006.6 |
| 20260902023029 | 49 | 69 | 0.0 | 0.0 | 0.00 | 0.09 | 0.01 | 93 | 1006.6 |
| 20260902021541 | 50 | 69 | 0.0 | 0.0 | 0.00 | 0.09 | 0.01 | 93 | 1006.6 |
| 20260902020027 | 50 | 69 | 0.0 | 0.0 | 0.00 | 0.09 | 0.01 | 93 | 1006.6 |
| 20260902014533 | 50 | 69 | 0.0 | 0.0 | 0.01 | 0.09 | 0.01 | 93 | 1006.5 |
| 20260902013021 | 51 | 69 | 0.0 | 0.0 | 0.01 | 0.09 | 0.01 | 93 | 1006.6 |
| 20260902011521 | 51 | 69 | 0.0 | 0.0 | 0.01 | 0.09 | 0.01 | 93 | 1006.6 |
| 20260902010026 | 52 | 69 | 0.0 | 0.0 | 0.01 | 0.09 | 0.01 | 93 | 1006.6 |
| 20260902004519 | 52 | 69 | 0.0 | 0.0 | 0.00 | 0.09 | 0.00 | 93 | 1006.5 |
| 20260902003018 | 53 | 69 | 0.0 | 0.0 | 0.00 | 0.09 | 0.00 | 93 | 1006.5 |
| 20260902001520 | 53 | 69 | 0.0 | 0.0 | 0.00 | 0.09 | 0.00 | 93 | 1006.5 |
| 20260902000015 | 53 | 69 | 0.0 | 0.0 | 0.00 | 0.09 | 0.00 | 93 | 1006.5 |
| 20260901234511 | 52 | 69 | 0.0 | 0.0 | 0.00 | 0.09 | 0.00 | 93 | 1006.6 |
| 20260901233016 | 52 | 69 | 0.0 | 0.0 | 0.00 | 0.09 | 0.00 | 93 | 1006.6 |
| 20260901231511 | 52 | 69 | 0.0 | 0.0 | 0.00 | 0.09 | 0.00 | 93 | 1006.6 |
| 20260901230006 | 51 | 69 | 0.0 | 0.0 | 0.00 | 0.09 | 0.00 | 93 | 1006.7 |
| 20260901224505 | 51 | 69 | 0.0 | 0.0 | 0.00 | 0.09 | 0.00 | 93 | 1006.7 |
| 20260901223004 | 51 | 69 | 0.0 | 0.0 | 0.00 | 0.09 | 0.00 | 93 | 1006.7 |
| 20260901221502 | 51 | 69 | 0.0 | 0.0 | 0.00 | 0.09 | 0.00 | 93 | 1006.7 |
| 20260901220059 | 51 | 69 | 0.0 | 0.0 | 0.00 | 0.09 | 0.00 | 93 | 1006.8 |
| 20260901214606 | 52 | 69 | 0.0 | 0.0 | 0.00 | 0.09 | 0.09 | 93 | 1006.8 |
| 20260901213135 | 52 | 69 | 0.0 | 0.0 | 0.00 | 0.09 | 0.09 | 93 | 1006.7 |
| 20260901211556 | 52 | 69 | 0.0 | 0.0 | 0.00 | 0.09 | 0.09 | 93 | 1006.7 |
| 20260901210055 | 52 | 69 | 0.0 | 0.0 | 0.00 | 0.09 | 0.09 | 92 | 1006.7 |
| 20260901204553 | 53 | 69 | 0.0 | 0.0 | 0.00 | 0.09 | 0.09 | 92 | 1006.8 |
| 20260901203117 | 54 | 69 | 0.0 | 0.0 | 0.00 | 0.09 | 0.09 | 93 | 1006.8 |
| 20260901201558 | 54 | 69 | 0.0 | 1.0 | 0.00 | 0.09 | 0.09 | 92 | 1006.9 |
| 20260901200052 | 55 | 69 | 0.0 | 0.0 | 0.00 | 0.09 | 0.09 | 92 | 1006.9 |
| 20260901194555 | 56 | 69 | 0.0 | 0.0 | 0.00 | 0.09 | 0.09 | 92 | 1006.8 |
| 20260901193051 | 56 | 69 | 0.0 | 0.0 | 0.00 | 0.09 | 0.09 | 92 | 1006.9 |
| 20260901191606 | 57 | 69 | 0.0 | 0.0 | 0.00 | 0.09 | 0.09 | 92 | 1006.7 |
| 20260901190048 | 58 | 69 | 0.0 | 0.0 | 0.00 | 0.09 | 0.09 | 92 | 1006.8 |
| 20260901184546 | 59 | 69 | 0.0 | 0.0 | 0.00 | 0.09 | 0.09 | 91 | 1006.7 |
| 20260901183051 | 59 | 69 | 0.0 | 0.0 | 0.00 | 0.09 | 0.09 | 91 | 1006.6 |
| 20260901181543 | 60 | 69 | 0.0 | 0.0 | 0.00 | 0.09 | 0.09 | 91 | 1006.6 |
| 20260901180041 | 61 | 69 | 0.0 | 0.0 | 0.00 | 0.09 | 0.09 | 90 | 1006.6 |
| 20260901174538 | 61 | 69 | 0.0 | 4.0 | 0.00 | 0.09 | 0.09 | 90 | 1006.5 |
| 20260901173045 | 62 | 69 | 0.0 | 3.0 | 0.00 | 0.09 | 0.09 | 90 | 1006.4 |
| 20260901171542 | 63 | 69 | 0.0 | 3.0 | 0.00 | 0.09 | 0.09 | 90 | 1006.4 |
| 20260901170034 | 63 | 69 | 4.0 | 6.0 | 0.00 | 0.09 | 0.09 | 89 | 1006.3 |
| 20260901164536 | 64 | 51 | 3.0 | 6.0 | 0.00 | 0.09 | 0.09 | 89 | 1006.2 |
| 20260901163038 | 64 | 57 | 2.0 | 5.0 | 0.00 | 0.09 | 0.09 | 88 | 1006.2 |
| 20260901161534 | 64 | 73 | 2.0 | 5.0 | 0.00 | 0.09 | 0.09 | 87 | 1006.1 |
| 20260901160029 | 64 | 66 | 3.0 | 5.0 | 0.00 | 0.09 | 0.09 | 88 | 1006.1 |
| 20260901154530 | 63 | 55 | 0.0 | 2.0 | 0.00 | 0.09 | 0.09 | 88 | 1006.1 |
| 20260901153040 | 62 | 55 | 0.0 | 3.0 | 0.00 | 0.09 | 0.09 | 89 | 1006.0 |
| 20260901151524 | 62 | 55 | 0.0 | 2.0 | 0.00 | 0.09 | 0.09 | 89 | 1006.1 |
| 20260901150023 | 62 | 37 | 3.0 | 6.0 | 0.08 | 0.09 | 0.09 | 89 | 1005.9 |
| 20260901144526 | 62 | 50 | 2.0 | 5.0 | 0.09 | 0.09 | 0.09 | 88 | 1006.0 |
| 20260901143021 | 62 | 108 | 0.0 | 4.0 | 0.09 | 0.09 | 0.09 | 87 | 1006.2 |
| 20260901141520 | 63 | 92 | 3.0 | 8.0 | 0.09 | 0.09 | 0.09 | 83 | 1006.0 |
| 20260901140020 | 65 | 49 | 6.0 | 11.0 | 0.00 | 0.00 | 0.00 | 77 | 1006.1 |
| 20260901134519 | 67 | 30 | 1.0 | 6.0 | 0.00 | 0.00 | 0.00 | 72 | 1006.1 |
| 20260901133017 | 67 | 192 | 3.0 | 5.0 | 0.00 | 0.00 | 0.00 | 71 | 1005.9 |
| 20260901131517 | 67 | 156 | 2.0 | 6.0 | 0.00 | 0.00 | 0.00 | 72 | 1005.9 |
| 20260901130116 | 66 | 167 | 2.0 | 6.0 | 0.00 | 0.00 | 0.00 | 76 | 1006.0 |
| 20260901124517 | 66 | 170 | 6.0 | 8.0 | 0.00 | 0.00 | 0.00 | 74 | 1005.9 |
| 20260901123020 | 67 | 150 | 3.0 | 5.0 | 0.00 | 0.00 | 0.00 | 72 | 1005.9 |
| 20260901121513 | 67 | 152 | 2.0 | 5.0 | 0.00 | 0.00 | 0.00 | 71 | 1005.8 |
| 20260901120013 | 66 | 208 | 0.0 | 4.0 | 0.00 | 0.00 | 0.00 | 72 | 1005.8 |
| 20260901114511 | 66 | 318 | 0.0 | 0.0 | 0.00 | 0.00 | 0.00 | 73 | 1005.8 |
| 20260901113011 | 66 | 318 | 0.0 | 0.0 | 0.00 | 0.00 | 0.00 | 72 | 1005.8 |
| 20260901111510 | 66 | 318 | 0.0 | 0.0 | 0.00 | 0.00 | 0.00 | 73 | 1005.8 |
| 20260901110009 | 66 | 341 | 3.0 | 5.0 | 0.00 | 0.00 | 0.00 | 74 | 1005.8 |
| 20260901104509 | 66 | 5 | 2.0 | 6.0 | 0.00 | 0.00 | 0.00 | 72 | 1005.8 |
| 20260901103007 | 66 | 188 | 0.0 | 4.0 | 0.00 | 0.00 | 0.00 | 72 | 1005.7 |
| 20260901101507 | 66 | 235 | 1.0 | 4.0 | 0.00 | 0.00 | 0.00 | 73 | 1005.7 |
| 20260901100008 | 65 | 316 | 0.0 | 0.0 | 0.00 | 0.00 | 0.00 | 74 | 1005.6 |
| 20260901094506 | 65 | 313 | 0.0 | 5.0 | 0.00 | 0.00 | 0.00 | 75 | 1005.6 |
| 20260901093005 | 65 | 310 | 2.0 | 8.0 | 0.00 | 0.00 | 0.00 | 75 | 1005.6 |
| 20260901091506 | 66 | 294 | 4.0 | 6.0 | 0.00 | 0.00 | 0.00 | 73 | 1005.6 |
| 20260901090006 | 67 | 128 | 0.0 | 2.0 | 0.00 | 0.00 | 0.00 | 73 | 1005.5 |
| 20260901084602 | 66 | 344 | 0.0 | 3.0 | 0.00 | 0.00 | 0.00 | 74 | 1005.6 |
| 20260901083058 | 66 | 136 | 0.0 | 2.0 | 0.00 | 0.00 | 0.00 | 77 | 1005.7 |
| 20260901081554 | 64 | 298 | 0.0 | 0.0 | 0.00 | 0.00 | 0.00 | 81 | 1005.6 |
| 20260901080058 | 63 | 297 | 0.0 | 0.0 | 0.00 | 0.00 | 0.00 | 83 | 1005.6 |
| 20260901074551 | 62 | 298 | 0.0 | 2.0 | 0.00 | 0.00 | 0.00 | 84 | 1005.5 |
| 20260901073045 | 61 | 298 | 1.0 | 5.0 | 0.00 | 0.00 | 0.00 | 85 | 1005.4 |
| 20260901071544 | 61 | 265 | 0.0 | 3.0 | 0.00 | 0.00 | 0.00 | 86 | 1005.4 |
| 20260901070044 | 61 | 307 | 3.0 | 6.0 | 0.00 | 0.00 | 0.00 | 85 | 1005.1 |
| 20260901064539 | 60 | 267 | 2.0 | 6.0 | 0.00 | 0.00 | 0.00 | 89 | 1005.0 |
| 20260901063038 | 59 | 255 | 5.0 | 7.0 | 0.00 | 0.00 | 0.00 | 93 | 1005.0 |
| 20260901061534 | 59 | 165 | 0.0 | 0.0 | 0.00 | 0.00 | 0.00 | 93 | 1004.9 |
| 20260901060034 | 57 | 165 | 0.0 | 0.0 | 0.00 | 0.00 | 0.00 | 93 | 1004.8 |
| 20260901054532 | 56 | 165 | 0.0 | 0.0 | 0.00 | 0.00 | 0.00 | 93 | 1005.0 |
| 20260901053031 | 54 | 165 | 0.0 | 0.0 | 0.00 | 0.00 | 0.00 | 93 | 1004.9 |
| 20260901051549 | 53 | 165 | 0.0 | 0.0 | 0.00 | 0.00 | 0.00 | 93 | 1004.9 |
| 20260901050030 | 53 | 165 | 0.0 | 0.0 | 0.00 | 0.00 | 0.00 | 93 | 1004.8 |
| 20260901044534 | 53 | 165 | 0.0 | 0.0 | 0.00 | 0.01 | 0.00 | 93 | 1004.8 |
| 20260901043036 | 53 | 165 | 0.0 | 0.0 | 0.00 | 0.01 | 0.00 | 93 | 1004.8 |